Location: Marcé
(47.5801°N, 0.3280°W)
Time: 15:40:38
(UTC+01:00)

SR - Pass Details

Date: 04 December 2021
Orbit: 582 x 872 km, 66.7° (Epoch: 22 January)

Event Time Altitude Azimuth Distance (km) Brightness Sun altitude
Rises 07:31:05 0° 332° (NNW) 2,815 - -9.9°
Exits shadow 07:32:13 - 338° (NNW) 2,414 ? -9.8°
Reaches altitude 10° 07:33:44 10° 348° (NNW) 1,920 ? -9.5°
Maximum altitude 07:37:05 22° 40° (NE) 1,331 ? -9.0°
Drops below altitude 10° 07:40:31 10° 92° (E) 1,974 ? -8.5°
Sets 07:43:17 0° 108° (ESE) 2,917 ? -8.1°
